CP10 (EXOCUBE)

Last updated on Dec. 9, 2021, 12:03 a.m. UTC

1 40380U 15003E   21342.42241332  .00001618  00000+0  70548-4 0  9990
2 40380  99.1172 142.1983 0130949   7.2373 353.0705 15.16900940378176
UTC
Height (km)
Latitude
Longitude
Inclination
Orbital Period
UTC large
Height (km)
Speed (km/s)
/
Latitude / Longitude
Inclination (degrees)
Orbital Period (minutes)
Azimuth
Elevation
Range (km)
Doppler Factor
iOS Compass Heading
iOS Angle